EW4939 Weather Reports


time (UTC)temp
C
wind
direction
speed
KPH
gust
KPH
rain 1hr
cm
rain 24hr
cm
rain mn
cm
humidity
%
barometer
mb
20260508132716 13 164 3.2 6.4 0.00 0.00 0.00 54 1015.2
20260508132214 12 165 8.0 11.3 0.00 0.00 0.00 54 1015.2
20260508131709 12 209 3.2 6.4 0.00 0.00 0.00 55 1015.3
20260508131206 12 163 4.8 6.4 0.00 0.00 0.00 54 1015.2
20260508130702 12 185 4.8 11.3 0.00 0.00 0.00 55 1015.2
20260508130159 12 146 1.6 4.8 0.00 0.00 0.00 55 1015.1
20260508125655 13 189 3.2 9.7 0.00 0.00 0.00 54 1015.0
20260508125151 13 192 1.6 6.4 0.00 0.00 0.00 53 1015.1
20260508124650 12 188 1.6 6.4 0.00 0.00 0.00 54 1015.2
20260508124146 12 175 3.2 11.3 0.00 0.00 0.00 52 1015.2
20260508123645 12 168 6.4 6.4 0.00 0.00 0.00 55 1015.2
20260508123142 12 209 8.0 11.3 0.00 0.00 0.00 56 1014.8
20260508122638 11 188 1.6 6.4 0.00 0.00 0.00 56 1015.0
20260508122135 11 184 3.2 6.4 0.00 0.00 0.00 57 1015.0
20260508121633 11 160 3.2 12.9 0.00 0.00 0.00 57 1014.9
20260508121131 11 168 3.2 6.4 0.00 0.00 0.00 59 1015.2
20260508120628 11 191 1.6 3.2 0.00 0.00 0.00 60 1015.0
20260508120127 10 174 0.0 0.0 0.00 0.00 0.00 61 1015.2
20260508115624 10 168 3.2 4.8 0.00 0.00 0.00 62 1014.8
20260508115120 10 178 3.2 4.8 0.00 0.00 0.00 62 1014.9
20260508114618 10 204 3.2 4.8 0.00 0.00 0.00 62 1014.9
20260508114113 10 190 3.2 4.8 0.00 0.00 0.00 62 1015.0
20260508113611 10 161 0.0 1.6 0.00 0.00 0.00 62 1014.9
20260508113109 10 191 0.0 3.2 0.00 0.00 0.00 61 1014.8
20260508112605 10 149 1.6 3.2 0.00 0.00 0.00 61 1014.6
20260508112102 10 175 1.6 4.8 0.00 0.00 0.00 60 1014.7
20260508111559 10 169 3.2 4.8 0.00 0.00 0.00 60 1014.8
20260508111056 10 156 4.8 6.4 0.00 0.00 0.00 59 1014.9
20260508110554 10 160 1.6 3.2 0.00 0.00 0.00 59 1014.8
20260508110049 10 158 1.6 1.6 0.00 0.00 0.00 59 1014.6
20260508105544 10 177 1.6 3.2 0.00 0.00 0.00 58 1014.5
20260508105042 10 190 1.6 6.4 0.00 0.00 0.00 58 1014.5
20260508104540 10 164 1.6 3.2 0.00 0.00 0.00 59 1014.5
20260508104036 10 175 3.2 3.2 0.00 0.00 0.00 59 1014.5
20260508103533 10 155 0.0 1.6 0.00 0.00 0.00 60 1014.7
20260508103031 10 238 0.0 0.0 0.00 0.00 0.00 59 1014.7
20260508102528 10 197 1.6 3.2 0.00 0.00 0.00 58 1014.7
20260508102026 10 170 1.6 1.6 0.00 0.00 0.00 58 1014.6
20260508101523 10 167 0.0 4.8 0.00 0.00 0.00 58 1014.6
20260508101020 10 180 3.2 4.8 0.00 0.00 0.00 59 1014.5
20260508100518 10 170 1.6 4.8 0.00 0.00 0.00 59 1014.4
20260508100015 10 247 0.0 3.2 0.00 0.00 0.00 59 1014.5
20260508095512 10 172 1.6 3.2 0.00 0.00 0.00 59 1014.5
20260508095009 10 192 1.6 3.2 0.00 0.00 0.00 59 1014.6
20260508094506 10 183 1.6 3.2 0.00 0.00 0.00 60 1014.6
20260508094003 10 185 0.0 3.2 0.00 0.00 0.00 59 1014.6
20260508093500 10 178 0.0 1.6 0.00 0.00 0.00 60 1014.6
20260508092957 10 288 1.6 1.6 0.00 0.00 0.00 59 1014.7
20260508092455 10 212 3.2 4.8 0.00 0.00 0.00 60 1014.5
20260508091954 10 202 1.6 3.2 0.00 0.00 0.00 60 1014.6
20260508091450 10 171 0.0 3.2 0.00 0.00 0.00 60 1014.6
20260508090947 10 202 0.0 0.0 0.00 0.00 0.00 61 1014.6
20260508090445 10 174 1.6 3.2 0.00 0.00 0.00 61 1014.6
20260508085941 10 173 0.0 1.6 0.00 0.00 0.00 61 1014.8
20260508085438 10 177 1.6 1.6 0.00 0.00 0.00 62 1014.7
20260508084935 10 174 0.0 1.6 0.00 0.00 0.00 62 1014.6
20260508084431 10 190 0.0 3.2 0.00 0.00 0.00 62 1014.6
20260508083929 9 198 0.0 3.2 0.00 0.00 0.00 62 1014.3
20260508083426 9 207 3.2 3.2 0.00 0.00 0.00 63 1014.6
20260508082926 9 192 0.0 4.8 0.00 0.00 0.00 62 1014.5
20260508082424 9 158 0.0 3.2 0.00 0.00 0.00 63 1014.5
20260508081922 9 197 3.2 4.8 0.00 0.00 0.00 63 1014.4
20260508081418 9 190 3.2 3.2 0.00 0.00 0.00 63 1014.4
20260508080914 9 170 1.6 3.2 0.00 0.00 0.00 63 1014.5
20260508080413 9 185 0.0 1.6 0.00 0.00 0.00 63 1014.5
20260508075909 9 188 1.6 3.2 0.00 0.00 0.00 63 1014.4
20260508075406 9 189 0.0 1.6 0.00 0.00 0.00 64 1014.4
20260508074904 9 168 0.0 0.0 0.00 0.00 0.00 63 1014.6
20260508074401 9 186 3.2 4.8 0.00 0.00 0.00 62 1014.6
20260508073858 9 188 1.6 3.2 0.00 0.00 0.00 63 1014.4
20260508073356 9 200 0.0 3.2 0.00 0.00 0.00 62 1014.5
20260508072852 9 173 1.6 1.6 0.00 0.00 0.00 63 1014.5
20260508072348 9 156 1.6 3.2 0.00 0.00 0.00 63 1014.4
20260508071846 9 184 0.0 3.2 0.00 0.00 0.00 62 1014.5
20260508071344 9 179 0.0 1.6 0.00 0.00 0.00 62 1014.7
20260508070841 9 175 0.0 1.6 0.00 0.00 0.00 62 1014.4
20260508070339 9 174 0.0 1.6 0.00 0.00 0.00 62 1014.7
20260508065837 9 164 1.6 3.2 0.00 0.00 0.00 62 1014.6
20260508065335 10 180 1.6 1.6 0.00 0.00 0.00 60 1014.6
20260508064833 10 187 1.6 3.2 0.00 0.00 0.00 61 1014.7
20260508064330 10 179 0.0 3.2 0.00 0.00 0.00 59 1014.7
20260508063827 10 164 3.2 4.8 0.00 0.00 0.00 60 1014.8
20260508063325 10 169 3.2 3.2 0.00 0.00 0.00 60 1014.9
20260508062822 10 179 3.2 3.2 0.00 0.00 0.00 60 1015.1
20260508062320 10 162 1.6 1.6 0.00 0.00 0.00 59 1015.1
20260508061816 10 187 1.6 3.2 0.00 0.00 0.00 59 1015.1
20260508061314 10 199 1.6 3.2 0.00 0.00 0.00 59 1015.1
20260508060810 10 183 0.0 4.8 0.00 0.00 0.00 58 1015.1
20260508060308 10 182 1.6 1.6 0.00 0.00 0.00 57 1015.1
20260508055808 10 176 1.6 3.2 0.00 0.00 0.00 58 1015.2
20260508055307 10 192 1.6 3.2 0.00 0.00 0.00 57 1015.0
20260508054803 10 161 1.6 4.8 0.00 0.00 0.00 57 1015.1
20260508054300 10 193 3.2 9.7 0.00 0.00 0.00 56 1015.1
20260508053757 10 197 1.6 4.8 0.00 0.00 0.00 56 1015.1
20260508053254 10 164 1.6 3.2 0.00 0.00 0.00 57 1015.1
20260508052752 10 193 1.6 3.2 0.00 0.00 0.00 56 1015.2
20260508052249 10 151 3.2 4.8 0.00 0.00 0.00 56 1015.2
20260508051745 10 181 3.2 3.2 0.00 0.00 0.00 55 1015.1
20260508051240 10 172 0.0 1.6 0.00 0.00 0.00 56 1015.1
20260508050737 10 157 3.2 6.4 0.00 0.00 0.00 55 1015.0
20260508050234 10 182 1.6 3.2 0.00 0.00 0.00 54 1015.1
20260508045729 10 190 0.0 3.2 0.00 0.00 0.00 55 1014.8
20260508045228 10 185 1.6 3.2 0.00 0.00 0.00 54 1014.9
20260508044725 10 154 1.6 4.8 0.00 0.00 0.00 54 1015.0
20260508044222 10 169 1.6 1.6 0.00 0.00 0.00 55 1015.0
20260508043717 10 156 1.6 1.6 0.00 0.00 0.00 55 1015.2
20260508043216 10 167 0.0 1.6 0.00 0.00 0.00 56 1015.0
20260508042712 10 167 1.6 1.6 0.00 0.00 0.00 57 1014.9
20260508042209 10 149 0.0 0.0 0.00 0.00 0.00 58 1015.0
20260508041705 10 148 1.6 3.2 0.00 0.00 0.00 59 1015.1
20260508041203 10 161 1.6 1.6 0.00 0.00 0.00 58 1014.8
20260508040659 10 161 1.6 1.6 0.00 0.00 0.00 57 1015.0
20260508040157 10 163 0.0 1.6 0.00 0.00 0.00 58 1014.9
20260508035654 10 162 0.0 3.2 0.00 0.00 0.00 56 1015.0
20260508035151 10 154 1.6 3.2 0.00 0.00 0.00 56 1014.7
20260508034647 10 159 1.6 3.2 0.00 0.00 0.00 56 1014.7
20260508034144 10 164 1.6 3.2 0.00 0.00 0.00 56 1014.6
20260508033642 10 174 1.6 3.2 0.00 0.00 0.00 56 1014.9
20260508033141 10 178 3.2 3.2 0.00 0.00 0.00 56 1014.9
20260508032636 10 173 1.6 3.2 0.00 0.00 0.00 56 1015.1
20260508032134 10 173 1.6 1.6 0.00 0.00 0.00 58 1015.2
20260508031631 10 167 1.6 3.2 0.00 0.00 0.00 57 1014.8
20260508031127 10 172 1.6 3.2 0.00 0.00 0.00 58 1015.0
20260508030623 10 164 0.0 1.6 0.00 0.00 0.00 58 1014.9
20260508030121 10 165 1.6 3.2 0.00 0.00 0.00 59 1014.8
20260508025617 10 164 0.0 0.0 0.00 0.00 0.00 59 1014.8
20260508025115 10 164 1.6 3.2 0.00 0.00 0.00 60 1014.8
20260508024610 10 163 1.6 3.2 0.00 0.00 0.00 58 1015.0
20260508024108 10 163 1.6 3.2 0.00 0.00 0.00 57 1014.9
20260508023604 10 179 3.2 3.2 0.00 0.00 0.00 58 1015.0
20260508023101 10 168 0.0 0.0 0.00 0.00 0.00 59 1014.9
20260508022557 10 161 0.0 0.0 0.00 0.00 0.00 57 1014.9
20260508022054 10 158 0.0 1.6 0.00 0.00 0.00 57 1014.8
20260508021550 10 163 1.6 3.2 0.00 0.00 0.00 59 1014.8
20260508021046 10 179 0.0 0.0 0.00 0.00 0.00 58 1014.9
20260508020544 10 180 0.0 0.0 0.00 0.00 0.00 58 1014.9
20260508020041 10 180 0.0 0.0 0.00 0.00 0.00 59 1014.9
20260508015539 10 180 0.0 0.0 0.00 0.00 0.00 63 1014.6
20260508015036 10 180 0.0 0.0 0.00 0.00 0.00 61 1014.8
20260508014532 9 180 0.0 0.0 0.00 0.00 0.00 63 1014.7
20260508014028 9 180 0.0 0.0 0.00 0.00 0.00 64 1014.7
20260508013524 9 180 0.0 0.0 0.00 0.00 0.00 66 1014.8
20260508013021 9 180 0.0 0.0 0.00 0.00 0.00 64 1014.7
20260508012519 10 180 0.0 0.0 0.00 0.00 0.00 65 1014.8
20260508012016 10 203 0.0 0.0 0.00 0.00 0.00 64 1014.7
20260508011514 10 203 0.0 0.0 0.00 0.00 0.00 62 1014.6
20260508011011 10 203 0.0 0.0 0.00 0.00 0.00 61 1014.6
20260508010508 10 203 0.0 0.0 0.00 0.00 0.00 59 1014.6
20260508010006 10 203 0.0 0.0 0.00 0.00 0.00 59 1014.5
20260508005502 11 203 0.0 0.0 0.00 0.00 0.00 57 1014.7
20260508004959 11 203 0.0 0.0 0.00 0.00 0.00 58 1014.8
20260508004454 11 204 0.0 0.0 0.00 0.00 0.00 57 1014.6
20260508003952 11 203 0.0 0.0 0.00 0.00 0.00 55 1014.5
20260508003448 11 203 0.0 0.0 0.00 0.00 0.00 54 1014.7
20260508002945 11 203 0.0 0.0 0.00 0.00 0.00 54 1014.4
20260508002442 12 203 0.0 0.0 0.00 0.00 0.00 53 1014.4
20260508001938 12 203 0.0 0.0 0.00 0.00 0.00 53 1014.4
20260508001434 12 204 0.0 0.0 0.00 0.00 0.00 50 1014.4
20260508000931 13 204 0.0 0.0 0.00 0.00 0.00 49 1014.5
20260508000427 13 204 0.0 0.0 0.00 0.00 0.00 44 1014.5
20260507235924 14 288 0.0 0.0 0.00 0.00 0.00 41 1014.6
20260507235421 14 289 0.0 0.0 0.00 0.00 0.00 41 1014.4
20260507234918 14 359 0.0 0.0 0.00 0.00 0.00 41 1014.5
20260507234415 14 349 0.0 0.0 0.00 0.00 0.00 42 1014.4
20260507233911 15 322 0.0 1.6 0.00 0.00 0.00 39 1014.3
20260507233408 15 260 0.0 1.6 0.00 0.00 0.00 38 1014.3
20260507232907 15 325 0.0 1.6 0.00 0.00 0.00 41 1014.3
20260507232403 15 309 1.6 3.2 0.00 0.00 0.00 38 1014.2
20260507231900 15 2 3.2 4.8 0.00 0.00 0.00 40 1014.4
20260507231357 15 191 0.0 1.6 0.00 0.00 0.00 40 1014.3
20260507230853 15 285 0.0 1.6 0.00 0.00 0.00 40 1014.3
20260507230351 15 296 0.0 3.2 0.00 0.00 0.00 42 1014.4
20260507225850 15 13 0.0 3.2 0.00 0.00 0.00 39 1014.2
20260507225347 15 349 1.6 3.2 0.00 0.00 0.00 41 1014.3
20260507224843 15 20 1.6 3.2 0.00 0.00 0.00 40 1014.4
20260507224340 15 338 3.2 3.2 0.00 0.00 0.00 39 1014.2
20260507223836 15 299 1.6 3.2 0.00 0.00 0.00 38 1014.2
20260507223332 15 11 3.2 4.8 0.00 0.00 0.00 37 1014.3
20260507222829 15 343 3.2 9.7 0.00 0.00 0.00 36 1014.5
20260507222326 15 2 3.2 4.8 0.00 0.00 0.00 37 1014.3
20260507221823 15 341 1.6 6.4 0.00 0.00 0.00 39 1014.4
20260507221319 16 11 4.8 6.4 0.00 0.00 0.00 38 1014.3
20260507220815 15 151 0.0 4.8 0.00 0.00 0.00 40 1014.2
20260507220314 15 303 3.2 4.8 0.00 0.00 0.00 38 1014.4
20260507215809 16 176 3.2 3.2 0.00 0.00 0.00 37 1014.5
20260507215307 16 317 3.2 6.4 0.00 0.00 0.00 38 1014.5
20260507214804 16 135 1.6 4.8 0.00 0.00 0.00 39 1014.7
20260507214301 15 22 1.6 3.2 0.00 0.00 0.00 37 1014.6
20260507213756 15 287 3.2 4.8 0.00 0.00 0.00 37 1014.5
20260507213253 15 35 1.6 4.8 0.00 0.00 0.00 40 1014.6
20260507212750 15 32 0.0 3.2 0.00 0.00 0.00 38 1014.6
20260507212246 15 358 3.2 11.3 0.00 0.00 0.00 41 1014.8
20260507211743 15 331 4.8 11.3 0.00 0.00 0.00 38 1014.7
20260507211239 16 31 3.2 3.2 0.00 0.00 0.00 39 1014.6
20260507210736 15 1 6.4 6.4 0.00 0.00 0.00 37 1014.7
20260507210233 16 337 4.8 6.4 0.00 0.00 0.00 37 1014.4
20260507205730 16 12 6.4 6.4 0.00 0.00 0.00 36 1014.6
20260507205227 16 239 1.6 3.2 0.00 0.00 0.00 38 1014.7
20260507204723 16 305 3.2 6.4 0.00 0.00 0.00 39 1014.5
20260507204221 16 41 3.2 4.8 0.00 0.00 0.00 36 1014.5
20260507203718 16 277 1.6 6.4 0.00 0.00 0.00 38 1014.6
20260507203216 16 334 4.8 6.4 0.00 0.00 0.00 35 1014.4
20260507202711 15 49 3.2 9.7 0.00 0.00 0.00 37 1014.5
20260507202208 15 359 1.6 4.8 0.00 0.00 0.00 36 1014.6
20260507201702 15 128 3.2 4.8 0.00 0.00 0.00 38 1014.5
20260507201200 15 306 4.8 11.3 0.00 0.00 0.00 40 1014.5
20260507200656 15 7 3.2 11.3 0.00 0.00 0.00 36 1014.4
20260507200152 15 17 3.2 9.7 0.00 0.00 0.00 37 1014.7
20260507195649 15 308 4.8 12.9 0.00 0.00 0.00 39 1014.7
20260507195146 15 300 4.8 6.4 0.00 0.00 0.00 38 1014.6
20260507194643 15 337 4.8 9.7 0.00 0.00 0.00 36 1014.7
20260507194138 15 359 3.2 11.3 0.00 0.00 0.00 39 1014.8
20260507193635 15 22 1.6 12.9 0.00 0.00 0.00 40 1014.8
20260507193133 15 0 4.8 9.7 0.00 0.00 0.00 39 1014.6
20260507192629 16 320 1.6 11.3 0.00 0.00 0.00 39 1014.7
20260507192126 16 340 0.0 3.2 0.00 0.00 0.00 38 1014.8
20260507191621 16 301 3.2 4.8 0.00 0.00 0.00 39 1014.8
20260507191118 15 8 3.2 4.8 0.00 0.00 0.00 42 1014.7
20260507190615 15 157 3.2 4.8 0.00 0.00 0.00 39 1014.7
20260507190114 15 296 4.8 17.7 0.00 0.00 0.00 41 1014.9
20260507185613 15 340 4.8 11.3 0.00 0.00 0.00 38 1015.1
20260507185108 15 315 4.8 9.7 0.00 0.00 0.00 44 1014.9
20260507184607 15 292 3.2 9.7 0.00 0.00 0.00 42 1015.1
20260507184104 14 291 4.8 9.7 0.00 0.00 0.00 45 1015.0
20260507183600 14 296 1.6 6.4 0.00 0.00 0.00 44 1014.9
20260507183057 14 306 6.4 11.3 0.00 0.00 0.00 40 1015.0
20260507182554 14 14 4.8 9.7 0.00 0.00 0.00 40 1015.3
20260507182049 15 347 6.4 9.7 0.00 0.00 0.00 42 1015.2
20260507181547 15 54 3.2 11.3 0.00 0.00 0.00 40 1015.1
20260507181043 13 220 1.6 3.2 0.00 0.00 0.00 43 1015.2
20260507180539 14 311 6.4 9.7 0.00 0.00 0.00 41 1015.2
20260507180036 15 304 6.4 9.7 0.00 0.00 0.00 44 1015.2
20260507175532 14 6 3.2 4.8 0.00 0.00 0.00 43 1015.3
20260507175030 15 20 4.8 11.3 0.00 0.00 0.00 41 1015.4
20260507174527 14 326 4.8 4.8 0.00 0.00 0.00 44 1015.4
20260507174025 15 243 3.2 9.7 0.00 0.00 0.00 38 1015.3
20260507173521 15 299 3.2 4.8 0.00 0.00 0.00 45 1015.5
20260507173019 13 317 3.2 4.8 0.00 0.00 0.00 45 1015.7
20260507172514 13 280 1.6 4.8 0.00 0.00 0.00 44 1015.6
20260507172012 14 290 6.4 9.7 0.00 0.00 0.00 41 1016.0
20260507171507 14 213 0.0 6.4 0.00 0.00 0.00 44 1016.0
20260507171005 13 209 3.2 9.7 0.00 0.00 0.00 39 1016.0
20260507170501 13 302 6.4 9.7 0.00 0.00 0.00 43 1015.8
20260507165957 13 306 3.2 4.8 0.00 0.00 0.00 42 1015.8
20260507165454 13 329 3.2 6.4 0.00 0.00 0.00 46 1016.1
20260507164950 12 301 4.8 6.4 0.00 0.00 0.00 46 1016.1
20260507164447 13 270 4.8 9.7 0.00 0.00 0.00 44 1016.1
20260507163943 12 45 1.6 3.2 0.00 0.00 0.00 48 1016.4
20260507163441 12 304 6.4 9.7 0.00 0.00 0.00 44 1016.3
20260507162938 12 32 1.6 4.8 0.00 0.00 0.00 48 1016.4
20260507162433 12 315 3.2 4.8 0.00 0.00 0.00 46 1016.3
20260507161931 12 32 4.8 11.3 0.00 0.00 0.00 45 1016.4
20260507161426 12 296 6.4 9.7 0.00 0.00 0.00 46 1016.3
20260507160924 12 23 1.6 6.4 0.00 0.00 0.00 44 1016.2
20260507160420 12 344 8.0 11.3 0.00 0.00 0.00 46 1016.4
20260507155915 12 5 3.2 6.4 0.00 0.00 0.00 45 1016.3
20260507155411 12 37 6.4 16.1 0.00 0.00 0.00 46 1016.3
20260507154909 12 327 1.6 11.3 0.00 0.00 0.00 45 1016.5
20260507154406 11 34 6.4 9.7 0.00 0.00 0.00 46 1016.3
20260507153903 11 311 4.8 11.3 0.00 0.00 0.00 45 1016.6
20260507153359 11 357 3.2 4.8 0.00 0.00 0.00 48 1016.3
20260507152855 11 24 8.0 11.3 0.00 0.00 0.00 46 1016.1
20260507152352 12 351 1.6 6.4 0.00 0.00 0.00 44 1016.4
20260507151848 11 17 0.0 6.4 0.00 0.00 0.00 49 1016.2
20260507151344 11 319 4.8 4.8 0.00 0.00 0.00 48 1016.3
20260507150842 11 350 4.8 9.7 0.00 0.00 0.00 45 1016.1
20260507150338 11 345 6.4 9.7 0.00 0.00 0.00 47 1016.1
20260507145834 11 12 4.8 16.1 0.00 0.00 0.00 47 1016.4
20260507145331 11 215 0.0 9.7 0.00 0.00 0.00 49 1016.1
20260507144828 11 332 4.8 6.4 0.00 0.00 0.00 47 1016.3
20260507144325 11 304 3.2 6.4 0.00 0.00 0.00 47 1016.2
20260507143822 11 302 3.2 4.8 0.00 0.00 0.00 48 1016.1
20260507143319 11 198 0.0 4.8 0.00 0.00 0.00 50 1016.2
20260507142815 10 309 3.2 4.8 0.00 0.00 0.00 49 1016.2
20260507142312 10 0 3.2 4.8 0.00 0.00 0.00 46 1016.3
20260507141808 10 127 3.2 4.8 0.00 0.00 0.00 51 1016.2
20260507141305 10 319 0.0 3.2 0.00 0.00 0.00 54 1016.2
20260507140801 10 311 1.6 6.4 0.00 0.00 0.00 56 1016.3
20260507140259 10 9 0.0 3.2 0.00 0.00 0.00 53 1016.3
20260507135756 10 349 4.8 11.3 0.00 0.00 0.00 51 1016.4
20260507135253 10 301 1.6 9.7 0.00 0.00 0.00 53 1016.4
20260507134749 10 340 3.2 4.8 0.00 0.00 0.00 51 1016.2
20260507134246 10 307 1.6 4.8 0.00 0.00 0.00 55 1016.1
20260507133742 10 311 4.8 9.7 0.00 0.00 0.00 52 1016.3
20260507133239 9 354 1.6 3.2 0.00 0.00 0.00 64 1016.1